Temperature
23 24 24 24 24 24 24 24 23 24 24 23 23 24 24 23 22 22 22 21 21 21 20 19 19 18 18 18 18 17 17 17 16 16 16 15 15 15 15 15 15 15 14 14
24 24 24 24 24 23 24 23 24 24 23 23 23 24 24 23 23 22 22 22 21 21 20 19 19 18 18 18 17 17 17 17 16 16 16 15 15 15 15 15 15 14 14 14
24 24 23 23 23 23 24 23 23 23 23 23 23 24 24 24 22 22 21 21 21 21 21 20 19 18 18 18 17 17 17 16 16 16 15 15 15 15 15 15 15 14 14 14
24 23 23 23 23 23 23 24 23 23 23 23 23 23 24 24 23 23 22 21 21 21 20 20 19 19 18 18 18 17 17 16 16 16 15 15 15 15 15 15 14 14 14 14
23 23 23 23 23 23 23 23 23 23 23 23 23 23 24 24 23 23 23 22 21 20 20 19 19 19 18 18 17 17 17 16 16 16 16 15 15 15 15 15 14 14 14 14
23 23 23 23 23 23 23 23 22 23 23 22 23 23 23 24 24 24 23 22 21 20 20 19 19 19 18 18 18 17 17 16 16 16 16 15 15 15 15 14 14 14 14 14
23 23 23 23 23 23 23 23 23 22 22 23 23 23 23 24 23 23 23 22 21 20 20 19 19 18 18 18 18 17 17 17 16 16 16 15 15 15 15 14 14 14 14 14
22 23 23 23 23 23 23 23 22 22 22 23 23 23 24 23 22 22 21 21 20 20 19 19 19 18 18 18 18 17 17 17 16 16 16 15 15 15 15 14 14 14 14 14
23 23 23 22 23 23 23 23 23 23 23 22 23 23 23 23 22 22 21 20 20 19 18 18 18 18 18 18 17 17 17 17 16 16 16 15 15 15 15 14 14 14 14 14
23 22 23 22 22 22 23 23 23 22 21 21 22 23 23 23 22 22 21 20 19 18 18 18 17 18 18 17 17 17 17 16 16 16 16 15 15 15 15 14 14 14 14 14
22 22 22 22 22 22 22 22 22 22 22 21 21 22 23 22 22 22 21 20 19 18 18 17 17 17 17 17 17 17 17 16 16 16 15 15 15 15 14 14 14 14 14 13
21 22 22 22 22 22 22 22 22 22 22 21 21 22 22 21 21 21 20 19 19 18 17 17 17 17 17 17 16 16 16 16 16 16 16 15 15 15 14 14 14 14 14 13
21 21 21 22 22 21 21 21 22 22 22 21 21 22 22 21 21 20 19 19 18 18 17 17 16 16 16 16 16 16 16 16 16 16 15 15 15 15 14 14 14 14 13 13
19 21 21 21 21 21 21 21 21 21 21 21 21 22 22 21 20 20 19 18 18 18 17 17 16 16 16 16 16 16 16 16 15 15 15 15 15 14 14 14 14 14 13 13
20 20 21 21 20 20 20 20 20 20 21 21 21 21 21 20 20 19 18 18 17 17 17 16 16 16 16 16 16 15 15 15 15 15 15 15 15 14 14 14 14 13 13 13
19 19 20 20 20 20 20 20 20 20 20 20 20 20 21 19 19 19 18 17 17 17 16 16 16 16 16 16 16 15 15 15 15 15 14 14 14 14 14 13 13 13 13 13
18 19 18 19 19 19 19 20 20 20 20 20 20 20 19 19 18 18 17 17 17 16 16 16 15 15 15 15 15 15 15 15 15 14 14 14 14 14 13 13 13 13 13 13
18 18 18 18 18 18 20 20 19 19 19 19 19 19 18 18 17 17 16 16 16 15 15 15 15 15 15 15 15 15 15 15 14 14 14 14 13 13 13 13 13 13 12 12
17 17 17 18 18 18 19 18 18 18 18 18 17 17 17 17 17 17 16 15 15 15 15 15 15 15 14 14 14 14 14 14 14 14 14 14 13 13 13 13 13 12 12 12
15 16 17 17 17 17 18 17 17 18 18 16 16 16 16 16 18 18 16 15 14 14 14 14 14 14 14 14 14 14 14 14 14 14 14 13 13 13 13 13 12 12 12 12
16 16 16 17 17 18 17 16 16 17 17 15 15 15 15 16 16 15 14 14 14 14 14 14 14 14 14 14 14 14 14 14 14 14 13 13 13 13 13 12 12 12 12 12
16 16 16 16 16 17 15 16 16 16 15 15 15 14 14 14 14 13 13 13 13 13 13 13 13 13 13 13 13 13 13 13 13 13 13 13 13 13 12 12 12 12 12 12
15 16 16 16 16 15 14 15 14 14 14 14 14 13 13 13 13 13 12 12 13 13 13 13 13 13 13 13 13 13 13 13 13 13 13 13 13 12 12 12 12 12 11 11
15 13 14 15 15 15 14 13 13 13 13 13 13 12 12 12 12 12 12 12 12 12 12 12 12 13 13 13 13 12 13 12 12 12 12 12 12 12 12 12 11 11 11 11
14 13 14 14 15 14 13 13 12 12 12 12 12 12 12 12 11 11 11 11 11 12 12 12 12 12 12 12 12 12 12 12 12 12 12 12 11 11 11 11 11 11 11 11
13 13 14 14 14 14 13 12 12 12 12 12 12 11 11 11 11 11 11 11 11 11 11 11 11 11 12 12 12 12 11 11 11 11 11 11 11 11 10 10 10 10 10 10
Wind_Speed
4 6 6 5 5 5 5 5 5 4 2 5 7 8 6 5 7 7 7 8 8 8 8 7 8 7 7 7 6 6 7 6 5 4 3 3 3 3 3 3 3 3 3 3
6 7 5 4 4 6 7 7 6 4 2 4 7 8 5 5 7 7 7 8 8 7 8 8 8 8 8 8 8 8 7 7 6 4 4 3 3 2 3 3 3 3 3 2
7 2 2 5 6 7 8 8 6 6 4 5 6 6 5 4 6 6 7 7 7 7 8 9 9 8 8 8 8 7 8 7 7 6 4 4 3 3 3 3 2 2 2 2
4 3 4 6 6 7 7 6 7 7 7 4 4 5 3 4 5 6 7 8 8 8 8 7 8 8 9 8 8 8 8 8 7 7 6 6 4 4 3 3 3 3 3 2
3 4 5 6 5 6 5 3 5 6 7 7 5 6 3 3 4 5 6 7 8 7 8 7 7 8 8 8 7 8 8 8 8 7 7 6 5 3 3 3 3 3 3 3
5 3 4 5 3 4 4 4 4 5 6 7 5 5 3 1 2 3 4 5 7 7 7 7 6 6 7 7 7 7 7 8 7 8 8 7 6 5 5 4 4 3 3 3
5 5 4 4 4 4 5 5 4 4 4 3 2 5 3 2 3 3 3 3 5 7 7 6 6 6 7 8 8 8 8 8 8 8 8 8 7 7 6 5 5 4 3 3
5 5 4 5 6 4 5 6 4 4 4 3 3 5 1 2 2 2 2 2 4 5 5 6 6 6 7 7 8 8 8 8 8 9 8 8 7 6 5 5 5 4 4 3
5 4 2 3 4 5 4 5 5 6 6 7 5 4 3 0 1 1 1 1 3 4 4 5 5 6 6 7 7 8 8 8 8 8 8 8 8 7 6 6 5 4 4 4
5 5 3 2 4 2 4 4 4 5 5 6 6 6 3 1 2 2 1 1 2 3 4 4 4 5 5 5 6 6 7 7 7 8 7 7 8 7 6 6 6 6 5 5
6 6 4 5 6 5 5 5 5 5 6 6 6 2 1 3 4 3 2 1 2 3 4 4 4 4 4 4 5 5 6 5 5 6 7 7 7 7 7 7 7 6 5 6
4 5 6 6 3 3 6 7 8 7 7 7 7 4 2 2 3 4 3 1 1 3 4 4 4 4 4 4 4 5 5 5 5 5 6 7 7 7 8 8 7 7 6 6
3 5 6 6 5 5 5 5 7 7 7 8 9 4 2 2 3 3 3 1 1 3 3 3 4 4 3 4 4 4 4 5 5 5 6 6 6 7 7 7 7 7 7 7
3 6 8 9 6 4 6 6 7 9 9 10 11 9 5 5 5 4 3 2 1 3 3 3 3 3 3 4 4 4 4 4 5 5 6 6 6 6 6 6 6 7 7 7
3 7 8 8 7 7 9 9 9 11 12 12 10 9 8 6 6 5 4 2 1 2 3 3 3 3 3 3 3 3 4 4 5 5 6 6 6 5 5 5 6 6 6 7
3 5 7 9 7 8 10 11 11 11 12 12 11 10 6 6 5 5 4 2 2 2 2 3 3 3 4 3 3 3 4 4 5 5 6 5 5 5 5 6 6 6 6 6
3 5 6 9 7 8 11 10 11 10 9 10 10 8 5 5 5 5 4 3 3 3 3 3 4 4 4 4 3 3 4 4 4 5 5 5 5 5 6 5 5 6 6 6
7 7 6 7 7 10 4 0 4 7 5 5 6 5 6 5 5 3 4 4 4 4 4 4 4 3 4 3 3 3 4 4 4 5 5 5 5 5 5 6 6 6 6 5
8 7 5 6 8 9 5 2 3 6 6 3 3 5 6 6 4 2 3 4 5 5 5 4 4 4 3 3 3 3 4 4 4 4 5 5 5 5 5 6 6 6 6 6
5 7 7 7 8 7 2 1 2 5 6 1 2 4 5 4 4 3 4 5 5 4 4 3 3 3 2 2 2 3 4 4 4 4 5 5 5 5 6 6 6 5 5 5
5 6 9 10 9 6 1 1 2 6 2 1 2 3 4 4 5 6 6 6 5 4 4 3 2 2 2 2 2 3 4 4 5 4 4 4 5 5 6 5 5 5 5 5
5 6 7 7 9 5 2 1 2 2 2 1 3 4 4 5 6 6 6 6 5 4 4 3 3 2 2 2 3 4 4 4 4 3 4 4 5 4 4 4 4 5 5 5
5 4 4 5 4 2 0 1 2 2 2 3 4 5 5 5 6 7 7 7 6 5 4 4 3 3 3 3 3 4 4 3 3 3 4 4 4 4 5 5 5 4 5 5
4 2 4 5 5 4 3 3 3 3 3 4 4 5 5 6 7 7 7 7 7 6 5 4 4 3 3 3 4 4 4 3 3 3 4 3 4 4 4 4 4 4 5 5
5 4 5 7 6 5 4 4 4 5 5 4 4 5 6 6 6 7 7 8 7 6 5 4 4 4 4 4 4 4 4 3 3 3 3 3 3 3 4 4 3 5 4 4
7 7 7 7 6 6 7 7 7 7 7 6 5 6 6 6 7 7 7 7 7 7 6 5 4 5 5 4 4 3 4 4 4 4 3 3 3 3 3 4 3 0 2 1
Wind_Direction
194 215 219 223 237 257 262 258 269 276 263 257 265 270 261 227 216 216 207 206 203 205 197 190 190 189 190 189 184 173 174 170 162 162 165 160 152 148 130 113 106 108 104 108
204 221 235 250 241 242 249 256 267 270 261 265 280 276 259 226 219 219 213 208 203 197 190 183 190 191 193 191 193 186 183 178 175 174 170 166 153 153 135 130 128 127 121 113
227 209 202 226 230 240 248 254 266 276 280 248 278 264 226 203 212 214 217 216 207 199 196 187 189 190 192 194 194 193 190 185 183 177 168 159 152 161 157 151 152 150 141 139
231 224 218 230 237 252 256 255 259 259 265 267 259 277 242 215 207 213 213 210 208 200 199 191 190 192 195 196 195 196 192 190 186 181 183 181 186 181 173 166 161 170 169 159
217 217 229 243 255 253 269 262 244 250 260 266 243 263 254 196 229 225 216 209 206 199 195 193 194 195 195 190 192 197 193 193 190 191 191 201 203 192 177 177 174 182 172 179
245 231 250 260 259 241 225 206 208 229 246 251 248 254 264 228 279 261 214 206 202 196 193 193 189 189 188 185 186 191 194 194 193 198 200 207 203 198 192 194 187 190 183 191
229 218 217 232 227 192 211 237 238 230 227 242 213 250 261 351 326 296 269 218 197 191 189 188 187 186 184 183 184 188 192 195 197 203 208 209 209 206 206 205 201 202 199 202
236 224 207 220 241 237 218 245 259 273 270 271 225 242 245 15 342 317 283 207 181 178 183 186 187 187 184 184 186 191 194 198 200 208 212 211 210 213 214 213 213 214 212 208
245 235 195 228 242 243 225 235 269 276 277 272 245 235 232 105 16 32 85 165 176 173 177 182 182 186 185 186 189 193 195 198 202 209 213 214 212 213 215 217 215 218 217 212
260 254 235 201 195 215 264 244 225 247 269 265 257 248 246 314 344 353 344 218 194 182 178 179 179 186 187 187 187 195 200 202 204 209 213 216 215 213 214 218 215 215 217 213
254 251 233 211 227 231 203 216 233 247 258 268 271 252 60 335 334 324 323 282 202 193 187 180 176 180 182 180 179 190 198 203 206 210 212 212 214 214 213 218 219 220 219 216
237 256 250 239 230 265 248 245 236 247 248 250 267 269 83 355 338 323 316 343 189 183 182 176 172 169 171 179 184 192 199 201 206 210 212 215 214 215 217 219 219 218 220 221
225 243 248 231 210 205 231 242 243 250 258 250 255 252 117 11 349 339 325 319 183 165 168 171 173 177 182 190 192 201 211 211 207 206 210 212 213 216 219 219 219 220 221 223
263 245 252 260 275 253 242 237 235 240 250 255 253 264 275 310 321 326 322 312 203 175 174 177 183 190 200 204 202 207 218 215 209 207 211 216 217 216 220 219 219 222 224 227
268 254 253 266 273 262 256 249 240 242 253 263 269 271 286 305 309 315 311 302 278 205 196 194 199 203 216 214 212 216 220 218 213 213 217 222 224 219 220 220 222 225 227 231
283 268 264 258 258 256 259 255 248 247 252 256 264 270 292 300 304 308 313 305 280 266 244 226 220 219 223 223 222 222 220 221 219 220 224 224 223 218 217 220 222 226 227 228
251 259 265 262 264 264 252 251 242 239 243 248 256 272 296 303 310 313 314 310 296 289 275 257 241 235 233 231 225 223 220 218 219 221 222 218 217 215 217 218 221 223 224 225
249 251 255 266 259 248 251 281 241 230 235 251 266 282 288 288 291 296 315 311 307 305 292 275 260 252 248 238 227 226 221 218 221 223 224 219 218 219 218 216 218 223 226 223
232 237 244 251 257 264 248 233 244 236 240 269 281 300 311 305 273 265 337 320 308 302 292 284 270 257 247 241 233 224 226 225 227 230 232 224 218 218 220 217 217 221 224 226
203 228 239 241 254 261 262 22 288 240 227 61 323 312 316 313 279 301 339 330 323 319 308 302 289 266 243 229 224 223 228 230 236 242 246 231 221 216 218 221 220 219 218 221
196 214 231 241 249 258 333 337 233 227 248 56 317 313 304 289 307 320 320 323 328 329 327 328 311 281 262 225 207 223 235 244 249 249 247 236 227 223 222 221 219 215 213 213
227 222 228 235 243 242 93 173 229 324 11 299 316 319 306 304 319 325 327 322 321 325 330 331 319 301 282 243 221 236 248 258 255 246 243 239 231 222 217 214 216 215 209 208
234 248 252 242 258 13 250 265 310 314 290 300 302 303 302 304 312 321 323 325 318 317 321 321 311 305 292 261 243 246 261 264 251 241 239 238 232 221 215 210 209 210 209 214
230 253 250 253 247 259 267 283 286 296 301 305 305 302 296 298 306 311 315 317 315 312 316 314 306 304 303 292 266 258 260 248 240 240 244 240 235 227 220 212 207 208 212 216
244 229 249 257 263 270 264 279 284 290 292 293 299 300 300 294 293 300 306 307 307 306 303 300 296 298 300 298 286 270 258 243 240 244 246 245 241 232 221 213 222 223 225 229
230 233 246 260 263 277 285 292 293 284 282 287 291 293 295 290 288 293 296 297 298 297 295 290 291 294 298 301 296 288 269 250 246 250 251 247 244 233 224 216 218 263 250 190
Height
1519 1518 1517 1516 1517 1517 1518 1520 1521 1519 1518 1520 1518 1516 1515 1517 1519 1520 1521 1523 1524 1526 1528 1530 1532 1534 1535 1537 1538 1539 1540 1540 1541 1541 1542 1542 1543 1543 1543 1543 1543 1543 1544 1544
1517 1517 1516 1517 1518 1518 1518 1520 1519 1517 1517 1518 1515 1513 1511 1514 1516 1517 1518 1520 1522 1524 1526 1528 1530 1532 1533 1535 1536 1537 1538 1539 1540 1541 1542 1542 1542 1543 1543 1543 1543 1543 1544 1544
1515 1515 1517 1518 1517 1518 1517 1518 1518 1519 1516 1515 1516 1512 1509 1511 1514 1516 1517 1518 1520 1522 1523 1526 1528 1529 1531 1532 1534 1535 1537 1538 1539 1540 1541 1541 1542 1542 1543 1543 1543 1543 1543 1543
1514 1515 1517 1516 1516 1515 1516 1514 1516 1517 1518 1515 1516 1518 1506 1506 1509 1511 1513 1515 1517 1519 1521 1523 1525 1527 1528 1530 1532 1534 1535 1536 1537 1538 1539 1540 1541 1542 1542 1543 1542 1543 1543 1543
1514 1514 1515 1515 1514 1514 1513 1513 1515 1515 1515 1515 1512 1516 1507 1504 1506 1507 1510 1512 1515 1517 1519 1521 1523 1524 1526 1528 1530 1531 1533 1534 1535 1537 1538 1539 1540 1541 1542 1542 1542 1542 1542 1542
1512 1514 1514 1512 1513 1513 1514 1515 1515 1514 1513 1520 1512 1515 1511 1502 1504 1504 1506 1509 1512 1514 1517 1519 1520 1522 1524 1526 1527 1529 1531 1532 1533 1535 1536 1537 1539 1539 1540 1540 1541 1541 1541 1541
1512 1511 1512 1513 1512 1513 1513 1514 1520 1521 1520 1517 1510 1514 1509 1502 1503 1504 1505 1507 1510 1512 1514 1516 1518 1520 1522 1523 1525 1527 1528 1530 1531 1533 1534 1536 1537 1538 1538 1539 1539 1540 1540 1540
1515 1514 1510 1510 1510 1510 1510 1511 1520 1527 1523 1514 1510 1512 1504 1502 1504 1505 1506 1507 1509 1510 1512 1514 1516 1518 1519 1521 1523 1524 1526 1528 1529 1531 1532 1533 1535 1536 1537 1537 1538 1538 1539 1539
1511 1512 1508 1509 1509 1508 1510 1510 1508 1513 1514 1517 1508 1504 1501 1502 1503 1504 1505 1506 1507 1509 1510 1512 1514 1515 1517 1519 1520 1522 1524 1526 1527 1529 1530 1531 1532 1533 1534 1535 1536 1536 1537 1537
1508 1512 1508 1509 1510 1510 1508 1507 1510 1514 1522 1521 1512 1506 1504 1501 1502 1503 1504 1505 1506 1508 1509 1510 1512 1513 1515 1517 1518 1520 1522 1524 1525 1526 1527 1528 1529 1531 1531 1532 1533 1534 1534 1535
1509 1510 1509 1508 1508 1507 1511 1511 1509 1509 1511 1519 1518 1510 1500 1502 1502 1502 1503 1504 1505 1506 1507 1509 1510 1511 1513 1515 1516 1518 1519 1521 1522 1523 1524 1525 1526 1527 1529 1529 1530 1531 1532 1532
1510 1508 1507 1506 1505 1507 1505 1505 1506 1513 1512 1511 1514 1510 1500 1502 1503 1503 1503 1503 1504 1504 1506 1507 1509 1510 1511 1512 1514 1515 1517 1518 1519 1520 1522 1522 1523 1524 1525 1526 1527 1528 1529 1530
1511 1510 1511 1510 1510 1508 1506 1506 1506 1505 1507 1509 1513 1509 1500 1502 1503 1503 1503 1503 1503 1504 1505 1506 1507 1508 1509 1510 1511 1513 1514 1515 1516 1517 1519 1520 1520 1521 1522 1523 1524 1525 1526 1526
1512 1507 1509 1512 1506 1504 1507 1507 1506 1506 1507 1506 1504 1502 1499 1500 1502 1502 1503 1502 1502 1502 1503 1504 1505 1506 1507 1508 1509 1510 1511 1512 1513 1514 1515 1517 1518 1518 1519 1520 1521 1521 1522 1523
1511 1507 1505 1504 1504 1505 1504 1504 1505 1505 1502 1503 1499 1500 1499 1500 1501 1502 1502 1501 1501 1501 1502 1502 1503 1504 1505 1506 1507 1508 1508 1509 1510 1511 1512 1513 1515 1515 1516 1517 1517 1518 1518 1519
1511 1508 1506 1506 1505 1504 1504 1501 1501 1502 1501 1500 1500 1499 1499 1501 1501 1501 1500 1500 1500 1500 1500 1501 1501 1502 1502 1503 1504 1505 1505 1506 1507 1508 1509 1510 1511 1511 1512 1513 1513 1514 1514 1515
1511 1509 1510 1505 1503 1504 1502 1496 1497 1498 1498 1498 1499 1498 1499 1500 1500 1500 1500 1499 1499 1499 1499 1499 1499 1499 1500 1500 1501 1502 1502 1503 1504 1505 1505 1506 1507 1507 1508 1509 1509 1510 1510 1511
1511 1509 1508 1506 1506 1509 1495 1494 1495 1496 1498 1498 1498 1499 1499 1499 1500 1500 1499 1498 1497 1497 1497 1497 1496 1497 1497 1498 1498 1499 1500 1500 1501 1501 1502 1502 1503 1504 1504 1505 1505 1506 1506 1507
1510 1509 1508 1507 1505 1499 1494 1496 1497 1497 1497 1499 1499 1500 1499 1498 1497 1497 1497 1497 1497 1496 1495 1495 1495 1494 1495 1495 1495 1496 1496 1497 1497 1497 1498 1498 1499 1500 1500 1501 1501 1502 1502 1503
1509 1508 1507 1507 1507 1503 1496 1497 1497 1497 1497 1500 1500 1500 1500 1498 1495 1495 1496 1496 1495 1494 1493 1492 1492 1492 1492 1492 1492 1493 1493 1494 1494 1494 1494 1495 1496 1496 1496 1497 1497 1498 1498 1499
1506 1507 1505 1503 1502 1495 1498 1498 1498 1500 1497 1500 1500 1500 1500 1499 1498 1498 1496 1494 1493 1492 1491 1490 1490 1490 1490 1489 1490 1490 1490 1490 1490 1490 1490 1491 1492 1492 1493 1493 1493 1494 1494 1495
1500 1501 1501 1500 1501 1499 1498 1498 1498 1497 1499 1499 1499 1499 1499 1498 1497 1496 1494 1493 1492 1491 1489 1488 1488 1487 1487 1487 1487 1487 1487 1487 1487 1487 1487 1487 1488 1488 1489 1489 1489 1490 1490 1490
1500 1499 1496 1497 1497 1498 1498 1498 1499 1499 1498 1498 1498 1498 1498 1497 1496 1495 1493 1492 1490 1489 1487 1486 1485 1485 1485 1485 1485 1484 1484 1484 1483 1483 1483 1483 1484 1484 1485 1485 1485 1486 1486 1487
1500 1502 1500 1497 1495 1497 1498 1498 1498 1498 1498 1497 1497 1497 1496 1495 1494 1493 1491 1490 1488 1487 1485 1484 1483 1482 1482 1482 1481 1481 1481 1480 1480 1480 1480 1480 1480 1480 1480 1481 1481 1481 1481 1482
1499 1500 1498 1496 1496 1496 1496 1496 1496 1496 1495 1495 1494 1494 1494 1493 1492 1491 1489 1488 1486 1484 1483 1482 1481 1479 1479 1478 1478 1478 1478 1477 1477 1476 1476 1476 1476 1476 1476 1476 1476 1477 1477 1478
1496 1496 1496 1492 1493 1494 1494 1494 1494 1493 1492 1492 1491 1490 1490 1490 1489 1488 1487 1485 1484 1482 1481 1479 1478 1476 1476 1475 1475 1474 1474 1474 1474 1473 1473 1472 1472 1472 1472 1472 1472 1472 1473 1473